Regional Weather Roundup
Issued by NWS

Home | Current Version | Previous Version | Text Only | Print | Product List | Glossary On
Versions: 1 2 3 4 5 6 7 8 9 10 11 12 13 14 15 16 17 18 19 20 21 22 23 24 25 26 27 28 29 30 31 32 33 34 35 36 37 38 39 40 41 42 43 44 45 46 47 48 49 50
000
ASUS43 KFSD 292010
RWRSD

WEATHER ROUNDUP FOR SOUTH DAKOTA
NATIONAL WEATHER SERVICE SIOUX FALLS SD
200 PM CST THU JAN 29 2015

NOTE: "FAIR" INDICATES FEW OR NO CLOUDS BELOW 12,000 FEET WITH NO
SIGNIFICANT WEATHER AND/OR OBSTRUCTIONS TO VISIBILITY.


SDZ001>005-009-010-012>017-292100-
NORTHWEST AND NORTH CENTRAL SOUTH DAKOTA

CITY           SKY/WX    TMP DP  RH WIND       PRES   REMARKS
BUFFALO          N/A     41  14  33 NW8       30.35F
FAITH            N/A     39  19  44 NW7       30.43F
MOBRIDGE       MOSUNNY   34  21  59 N14       30.44S WCI  25
$$

SDZ012>016-024>037-041>051-057-063-072>074-292100-
SOUTHWEST AND SOUTH CENTRAL SOUTH DAKOTA

CITY           SKY/WX    TMP DP  RH WIND       PRES   REMARKS
RAPID CTY ARPT SUNNY     45  12  26 N9        30.42F
PIERRE         SUNNY     38  23  55 NW12G22   30.45F
CUSTER         SUNNY     41  -4  15 VRB6      30.36F
ELLSWORTH AFB  SUNNY     45  13  27 N8        30.41F
PHILIP         SUNNY     44  21  40 NW10      30.45F
PINE RIDGE     SUNNY     42  12  29 NW5       30.45F
WINNER         FAIR      42  23  46 N16       30.45F
$$

SDZ004>011-016>023-039-040-292100-
NORTHEAST SOUTH DAKOTA

CITY           SKY/WX    TMP DP  RH WIND       PRES   REMARKS
ABERDEEN       CLOUDY    27  18  69 N14       30.49F WCI  16
WATERTOWN      CLOUDY    24  18  77 NW22      30.41R WCI   9
SISSETON         N/A     23  17  78 N18       30.45R WCI   9
$$

SDZ017-020-022-023-036>040-048>070-292100-
SOUTHEAST SOUTH DAKOTA

CITY           SKY/WX    TMP DP  RH WIND       PRES   REMARKS
SIOUX FALLS    CLOUDY    31  21  66 NW21G28   30.41S WCI  18
HURON          CLOUDY    30  21  69 N17       30.47S WCI  18
CHAMBERLAIN    SUNNY     35  23  60 NW17G23   30.46S WCI  25
MITCHELL       CLOUDY    33  22  63 N18       30.47F WCI  22
YANKTON        CLOUDY    36  23  60 NW17G26   30.46R
$$

ABBREVIATIONS USED IN REMARKS
   TC - TEMPERATURE IN CELSIUS
  WCI - WIND CHILL INDEX
   HX - HEAT INDEX
  VSB - VISIBILITY



USA.gov is the U.S. government's official web portal to all federal, state and local government web resources and services.